User: anonymous   Login
Location: Newark
(54.2500°N, 9.1833°E)
Time: 21:53:58
(UTC+00:00)
Language:

SR - Orbit

View from above orbital plane
View from above orbital plane
View from above satellite
View from above satellite

Ground track
Ground track

The orbit data is extracted from the following two-line orbital elements,

1    46U 60007B   19341.92680852 -.00000060 +00000-0 +11507-4 0  9996
2    46 066.6893 206.7279 0217414 274.5364 083.0939 14.49261536111212
Epoch (UTC): 07 December 2019 22:14:36
Eccentricity: 0.0217414
inclination: 66.6893°
perigee height: 573 km
apogee height: 882 km
right ascension of ascending node: 206.7279°
argument of perigee: 274.5364°
revolutions per day: 14.49261536
mean anomaly at epoch: 83.0939°
orbit number at epoch: 11121

The dashed part of the orbit path shows where the satellite is in the earth's shadow,  

DLR